Location: Academy at Carrie F Thomas
(32.8490°N, 97.2053°W)
Time: 10:33:42
(UTC+00:00)

Meteor 1-25 Rocket - Pass Details

Date: 09 July 2022
Orbit: 835 x 892 km, 81.2° (Epoch: 14 August)

Event Time Altitude Azimuth Distance (km) Brightness Sun altitude
Exits shadow 09:43:19 20° 271° (W) 1,940 5.7 -18.7°
Maximum altitude 09:44:26 21° 287° (WNW) 1,886 5.7 -18.5°
Drops below altitude 10° 09:48:45 10° 335° (NNW) 2,556 6.9 -17.9°
Sets 09:51:51 0° 351° (N) 3,492 7.9 -17.4°
